Location: Clanezzo
(45.7500°N, 9.6000°E)
Time: 14:13:23
(UTC+00:00)

Landsat 7 - Pass Details

Date: 12 May 2021
Orbit: 701 x 703 km, 98.0° (Epoch: 18 June)

Event Time Altitude Azimuth Distance (km) Brightness Sun altitude
Exits shadow 19:27:05 - 139° (SE) 2,307 5.8 -7.4°
Reaches altitude 10° 19:27:27 10° 138° (SE) 2,167 5.7 -7.4°
Maximum altitude 19:31:53 41° 69° (ENE) 1,025 4.4 -8.0°
Drops below altitude 10° 19:36:21 10° 0° (N) 2,182 6.9 -8.7°
Sets 19:38:43 0° 354° (N) 3,104 7.9 -9.0°
